Retour au catalogue

STARLINK-30511

ActifCommunicationsVLEO
NORAD 57978·PAYLOAD·🇺🇸 United States

Lancé Sep 30, 2023 depuis Cape Canaveral Space Force Station

Loading…

Prochains Passages (prochaines 24 heures)

TLE

FraisSource: CelesTrak SupGP

Époque: Sep 14, 2026, 22:17 UTC

1 57978C 23151Q   26257.92895833 -.00051088  00000+0 -18501-2 0  2574
2 57978  43.0030   2.0371 0001509 272.4584 109.2778 15.27608937    11

Suivez STARLINK-30511 en temps réel avec AllMySat

Download on the App Store